Regional Weather Roundup
Issued by NWS Newport/Morehead, NC

Home | Current Version | Previous Version | Text Only | Print | Product List | Glossary On
Versions: 1 2 3 4 5 6 7 8 9 10 11 12 13 14 15 16 17 18 19 20 21 22 23 24 25 26 27 28 29 30 31 32 33 34 35 36 37 38 39 40 41 42 43 44 45 46 47 48 49 50
638
ASUS42 KMHX 211925
RWRMHX
WEATHER ROUNDUP FOR EASTERN NORTH CAROLINA
NATIONAL WEATHER SERVICE NEWPORT/MOREHEAD CITY NC
200 PM EST WED FEB 21 2018

NOTE: "FAIR" INDICATES FEW OR NO CLOUDS BELOW 12,000 FEET
WITH NO SIGNIFICANT WEATHER AND/OR OBSTRUCTIONS TO VISIBILITY

NCZ015>017-031-032-045>047-102-103-212000-
NORTH COAST

CITY           SKY/WX    TMP DP  RH WIND       PRES   REMARKS
EDENTON        FAIR      79  63  57 SW10      30.42F
ELIZABETH CITY FAIR      79  65  62 SW14      30.41F
KITTY HAWK     FAIR      72  63  73 CALM      30.41F
MANTEO         PTSUNNY   67  60  80 SW8       30.43F

$$

NCZ045>047-081-094-103-104-212000-
CENTRAL COAST

CITY           SKY/WX    TMP DP  RH WIND       PRES   REMARKS
FRISCO         CLOUDY    72  66  81 SW8       30.46F

$$

NCZ095-097-098-100-101-212000-
SOUTHERN COAST

CITY           SKY/WX    TMP DP  RH WIND       PRES   REMARKS
BEAUFORT       PTSUNNY   74  66  76 S10       30.45F
CEDAR ISLAND   NOT AVBL
JACKSONVILLE   FAIR      80  61  52 S10       30.42F
PINEY ISLAND   NOT AVBL
WILMINGTON     CLOUDY    77  63  61 SW8       30.43F


$$

NCZ011>013-027>030-043-044-078>080-089-090>093-098-212000-
COASTAL PLAIN

CITY           SKY/WX    TMP DP  RH WIND       PRES   REMARKS
AHOSKIE        PTSUNNY   75  64  67 SW6       30.41F
CLINTON        FAIR      78  65  65 CALM      30.43F
ELIZABETHTOWN  NOT AVBL
GOLDSBORO      PTSUNNY   78  63  58 SW14      30.40F
GREENVILLE     FAIR      81  61  50 SW10      30.42F
HAVELOCK       MOSUNNY   79  64  60 SW12      30.44F
KENANSVILLE    CLOUDY    81  63  54 SW9       30.42F
KINSTON        PTSUNNY   81  59  47 SW8G16    30.43F
NEW BERN       FAIR      81  62  52 SW8       30.43F
RICHLANDS      PTSUNNY   78  64  61 S8        30.43F
ROCKY MOUNT    PTSUNNY   76  64  66 SW8       30.42F
WASHINGTON     FAIR      81  60  48 SW13      30.42F
WHITEVILLE     PTSUNNY   78  62  58 S5        30.42F

$$

AMZ130-135-150-152-154-156-158-170-250-252-270-ANZ085-086-088-633-658-670-212000-
MARINE OBSERVATIONS

STATION/POSITION TIME  TEMP    WIND        PRES    WAVE   SWELL
                       AIR SEA DIR/SP/G            HT/PER HT/PER
                 (UTC) (F)     (DEG/KT/KT) (MB)    (FT/S) (FT/S)
CHESAPEAKE LIGHT NOT AVBL
64 E VA BEACH    1850   53 51  220/  6/  6 1030.9    3/12   3/12
DUCK             1900   72 45  250/  9/ 12 1029.6
2 E DUCK         1900      49                N/A     3/13   2/13
OREGON INLET     1900      60  190/ 10/ 12 1030.7
13E OREGON INLT  1848      50                N/A     3/13   3/13
HATTERAS CG      1900   70 59  220/  6/ 11 1031.4
DIAMOND BUOY     1910   73 72  190/ 12/ 16 1031.8
CAPE LOOKOUT     1900          210/  8/ 12 1031.5
BEAUFORT LAB     1900   69 57  200/  7/  8 1031.4
30 SE NEW RVR IN 1808   71 70  200/  4/  6 1031.7
30 SE NEW RVR IN 1900      70                N/A     4/ 7   2/13
27 SE WRIGHTSVLE 1808   70 69  210/  6/  8 1031.5
5 SE WRIGHTSVLE  1908   65 58  200/  4/  8 1030.8
225 S CAPE HAT   1850   72 75  120/ 12/ 14 1032.6    5/ 7   5/ 7
41 SE CHARLESTON 1910   73 69  190/  2/  4 1030.5

$$




USA.gov is the U.S. government's official web portal to all federal, state and local government web resources and services.